Time,TemperatureF,DewpointF,PressureIn,WindDirection,WindDirectionDegrees,WindSpeedMPH,WindSpeedGustMPH,Humidity,HourlyPrecipIn,Conditions,Clouds,dailyrainin,SoftwareType,DateUTC
2013-11-14 00:00:00,26.7,10.5,30.11,SE,135,0.0,2.0,50,0.00,,,-99.99,WeatherLink 5.5,2013-11-14 05:00:00,
2013-11-14 00:05:00,27.0,11.3,30.10,East,90,0.0,2.0,51,0.00,,,-99.99,WeatherLink 5.5,2013-11-14 05:05:00,
2013-11-14 00:10:00,27.3,11.1,30.10,SE,135,1.0,6.0,50,0.00,,,-99.99,WeatherLink 5.5,2013-11-14 05:10:00,
2013-11-14 00:15:00,27.3,11.1,30.10,SE,135,1.0,6.0,50,0.00,,,-99.99,WeatherLink 5.5,2013-11-14 05:15:00,
2013-11-14 00:20:00,27.8,11.5,30.10,SE,135,0.0,2.0,50,0.00,,,-99.99,WeatherLink 5.5,2013-11-14 05:20:00,
2013-11-14 00:25:00,27.8,11.5,30.10,SSE,157,0.0,2.0,50,0.00,,,-99.99,WeatherLink 5.5,2013-11-14 05:25:00,
2013-11-14 00:30:00,27.8,11.5,30.10,SSE,157,0.0,2.0,50,0.00,,,-99.99,WeatherLink 5.5,2013-11-14 05:30:00,
2013-11-14 00:35:00,27.9,11.6,30.09,SE,135,1.0,4.0,50,0.00,,,-99.99,WeatherLink 5.5,2013-11-14 05:35:00,
2013-11-14 00:40:00,28.2,11.9,30.09,ESE,112,0.0,4.0,50,0.00,,,-99.99,WeatherLink 5.5,2013-11-14 05:40:00,
2013-11-14 00:45:00,28.2,11.9,30.09,ESE,112,0.0,4.0,50,0.00,,,-99.99,WeatherLink 5.5,2013-11-14 05:45:00,
2013-11-14 00:50:00,28.5,12.2,30.09,North,-999,0.0,0.0,50,0.00,,,-99.99,WeatherLink 5.5,2013-11-14 05:50:00,
2013-11-14 00:55:00,28.5,12.2,30.09,SE,135,0.0,4.0,50,0.00,,,-99.99,WeatherLink 5.5,2013-11-14 05:55:00,
2013-11-14 01:00:00,28.5,12.2,30.09,SE,135,0.0,4.0,50,0.00,,,-99.99,WeatherLink 5.5,2013-11-14 06:00:00,
2013-11-14 01:05:00,28.8,12.5,30.08,South,180,1.0,4.0,50,0.00,,,-99.99,WeatherLink 5.5,2013-11-14 06:05:00,
2013-11-14 01:10:00,28.8,12.0,30.08,ESE,112,0.0,6.0,49,0.00,,,-99.99,WeatherLink 5.5,2013-11-14 06:10:00,
2013-11-14 01:15:00,28.8,12.0,30.08,ESE,112,0.0,6.0,49,0.00,,,-99.99,WeatherLink 5.5,2013-11-14 06:15:00,
2013-11-14 01:20:00,29.1,12.3,30.07,SSE,157,0.0,1.0,49,0.00,,,-99.99,WeatherLink 5.5,2013-11-14 06:20:00,
2013-11-14 01:25:00,29.2,12.4,30.07,SE,135,1.0,4.0,49,0.00,,,-99.99,WeatherLink 5.5,2013-11-14 06:25:00,
2013-11-14 01:30:00,29.2,12.4,30.07,SE,135,1.0,4.0,49,0.00,,,-99.99,WeatherLink 5.5,2013-11-14 06:30:00,
2013-11-14 01:35:00,29.4,12.1,30.07,ESE,112,1.0,6.0,48,0.00,,,-99.99,WeatherLink 5.5,2013-11-14 06:35:00,
2013-11-14 01:40:00,29.4,12.1,30.07,ESE,112,1.0,4.0,48,0.00,,,-99.99,WeatherLink 5.5,2013-11-14 06:40:00,
2013-11-14 01:45:00,29.4,12.1,30.07,ESE,112,1.0,4.0,48,0.00,,,-99.99,WeatherLink 5.5,2013-11-14 06:45:00,
2013-11-14 01:50:00,29.4,12.1,30.07,SE,135,0.0,1.0,48,0.00,,,-99.99,WeatherLink 5.5,2013-11-14 06:50:00,
2013-11-14 01:55:00,29.4,12.1,30.07,ESE,112,0.0,2.0,48,0.00,,,-99.99,WeatherLink 5.5,2013-11-14 06:55:00,
2013-11-14 02:00:00,29.4,12.1,30.07,ESE,112,0.0,2.0,48,0.00,,,-99.99,WeatherLink 5.5,2013-11-14 07:00:00,
2013-11-14 02:05:00,29.5,12.7,30.07,SSE,157,0.0,2.0,49,0.00,,,-99.99,WeatherLink 5.5,2013-11-14 07:05:00,
2013-11-14 02:10:00,29.5,12.2,30.07,SSE,157,0.0,2.0,48,0.00,,,-99.99,WeatherLink 5.5,2013-11-14 07:10:00,
2013-11-14 02:15:00,29.5,12.2,30.07,SSE,157,0.0,2.0,48,0.00,,,-99.99,WeatherLink 5.5,2013-11-14 07:15:00,
2013-11-14 02:20:00,29.8,12.5,30.06,SSE,157,0.0,2.0,48,0.00,,,-99.99,WeatherLink 5.5,2013-11-14 07:20:00,
2013-11-14 02:25:00,30.0,12.7,30.06,SW,225,0.0,4.0,48,0.00,,,-99.99,WeatherLink 5.5,2013-11-14 07:25:00,
2013-11-14 02:30:00,30.0,12.7,30.06,SW,225,0.0,4.0,48,0.00,,,-99.99,WeatherLink 5.5,2013-11-14 07:30:00,
2013-11-14 02:35:00,30.1,12.7,30.06,SSE,157,1.0,6.0,48,0.00,,,-99.99,WeatherLink 5.5,2013-11-14 07:35:00,
2013-11-14 02:40:00,30.4,13.0,30.06,East,90,1.0,7.0,48,0.00,,,-99.99,WeatherLink 5.5,2013-11-14 07:40:00,
2013-11-14 02:45:00,30.4,13.0,30.06,East,90,1.0,7.0,48,0.00,,,-99.99,WeatherLink 5.5,2013-11-14 07:45:00,
2013-11-14 02:50:00,30.6,12.7,30.05,SSE,157,1.0,7.0,47,0.00,,,-99.99,WeatherLink 5.5,2013-11-14 07:50:00,
2013-11-14 02:55:00,30.6,12.7,30.05,SSE,157,1.0,7.0,47,0.00,,,-99.99,WeatherLink 5.5,2013-11-14 07:55:00,
2013-11-14 03:00:00,30.6,12.7,30.05,SSE,157,1.0,7.0,47,0.00,,,-99.99,WeatherLink 5.5,2013-11-14 08:00:00,
2013-11-14 03:05:00,30.9,12.5,30.05,South,180,1.0,7.0,46,0.00,,,-99.99,WeatherLink 5.5,2013-11-14 08:05:00,
2013-11-14 03:10:00,31.0,12.6,30.05,South,180,0.0,2.0,46,0.00,,,-99.99,WeatherLink 5.5,2013-11-14 08:10:00,
2013-11-14 03:15:00,31.0,12.6,30.05,South,180,0.0,2.0,46,0.00,,,-99.99,WeatherLink 5.5,2013-11-14 08:15:00,
2013-11-14 03:20:00,31.3,12.9,30.04,SSE,157,0.0,4.0,46,0.00,,,-99.99,WeatherLink 5.5,2013-11-14 08:20:00,
2013-11-14 03:25:00,31.3,12.4,30.04,SSE,157,1.0,7.0,45,0.00,,,-99.99,WeatherLink 5.5,2013-11-14 08:25:00,
2013-11-14 03:30:00,31.3,12.4,30.04,SSE,157,1.0,7.0,45,0.00,,,-99.99,WeatherLink 5.5,2013-11-14 08:30:00,
2013-11-14 03:35:00,31.5,12.6,30.05,SE,135,0.0,1.0,45,0.00,,,-99.99,WeatherLink 5.5,2013-11-14 08:35:00,
2013-11-14 03:40:00,31.5,12.6,30.05,North,-999,0.0,0.0,45,0.00,,,-99.99,WeatherLink 5.5,2013-11-14 08:40:00,
2013-11-14 03:45:00,31.5,12.6,30.05,North,-999,0.0,0.0,45,0.00,,,-99.99,WeatherLink 5.5,2013-11-14 08:45:00,
2013-11-14 03:50:00,31.5,13.1,30.05,North,-999,0.0,0.0,46,0.00,,,-99.99,WeatherLink 5.5,2013-11-14 08:50:00,
2013-11-14 03:55:00,31.5,12.6,30.05,SSE,157,1.0,6.0,45,0.00,,,-99.99,WeatherLink 5.5,2013-11-14 08:55:00,
2013-11-14 04:00:00,31.5,12.6,30.04,SE,135,0.0,1.0,45,0.00,,,-99.99,WeatherLink 5.5,2013-11-14 09:00:00,
2013-11-14 04:05:00,31.6,12.7,30.04,SE,135,1.0,6.0,45,0.00,,,-99.99,WeatherLink 5.5,2013-11-14 09:05:00,
2013-11-14 04:10:00,31.8,12.8,30.04,East,90,0.0,4.0,45,0.00,,,-99.99,WeatherLink 5.5,2013-11-14 09:10:00,
2013-11-14 04:15:00,31.8,12.8,30.04,East,90,0.0,4.0,45,0.00,,,-99.99,WeatherLink 5.5,2013-11-14 09:15:00,
2013-11-14 04:20:00,31.9,12.9,30.04,North,-999,0.0,0.0,45,0.00,,,-99.99,WeatherLink 5.5,2013-11-14 09:20:00,
2013-11-14 04:25:00,31.9,12.9,30.04,North,-999,0.0,0.0,45,0.00,,,-99.99,WeatherLink 5.5,2013-11-14 09:25:00,
2013-11-14 04:30:00,31.9,12.9,30.04,North,-999,0.0,0.0,45,0.00,,,-99.99,WeatherLink 5.5,2013-11-14 09:30:00,
2013-11-14 04:35:00,31.9,12.4,30.03,East,90,0.0,2.0,44,0.00,,,-99.99,WeatherLink 5.5,2013-11-14 09:35:00,
2013-11-14 04:40:00,31.9,12.4,30.03,East,90,0.0,1.0,44,0.00,,,-99.99,WeatherLink 5.5,2013-11-14 09:40:00,
2013-11-14 04:45:00,31.9,12.4,30.03,East,90,0.0,1.0,44,0.00,,,-99.99,WeatherLink 5.5,2013-11-14 09:45:00,
2013-11-14 04:50:00,32.1,12.6,30.02,SE,135,0.0,2.0,44,0.00,,,-99.99,WeatherLink 5.5,2013-11-14 09:50:00,
2013-11-14 04:55:00,32.1,12.6,30.02,SE,135,0.0,1.0,44,0.00,,,-99.99,WeatherLink 5.5,2013-11-14 09:55:00,
2013-11-14 05:00:00,32.1,12.6,30.02,SE,135,0.0,1.0,44,0.00,,,-99.99,WeatherLink 5.5,2013-11-14 10:00:00,
2013-11-14 05:05:00,32.1,12.1,30.03,SE,135,0.0,1.0,43,0.00,,,-99.99,WeatherLink 5.5,2013-11-14 10:05:00,
2013-11-14 05:10:00,32.1,12.1,30.03,SE,135,1.0,6.0,43,0.00,,,-99.99,WeatherLink 5.5,2013-11-14 10:10:00,
2013-11-14 05:15:00,32.1,12.1,30.03,SE,135,1.0,6.0,43,0.00,,,-99.99,WeatherLink 5.5,2013-11-14 10:15:00,
2013-11-14 05:20:00,32.1,12.1,30.03,North,-999,0.0,0.0,43,0.00,,,-99.99,WeatherLink 5.5,2013-11-14 10:20:00,
2013-11-14 05:25:00,32.1,12.1,30.03,SE,135,0.0,1.0,43,0.00,,,-99.99,WeatherLink 5.5,2013-11-14 10:25:00,
2013-11-14 05:30:00,32.1,12.1,30.03,SE,135,0.0,1.0,43,0.00,,,-99.99,WeatherLink 5.5,2013-11-14 10:30:00,
2013-11-14 05:35:00,31.9,11.9,30.03,North,-999,0.0,0.0,43,0.00,,,-99.99,WeatherLink 5.5,2013-11-14 10:35:00,
2013-11-14 05:40:00,31.9,11.9,30.03,North,-999,0.0,0.0,43,0.00,,,-99.99,WeatherLink 5.5,2013-11-14 10:40:00,
2013-11-14 05:45:00,31.9,11.9,30.03,North,-999,0.0,0.0,43,0.00,,,-99.99,WeatherLink 5.5,2013-11-14 10:45:00,
2013-11-14 05:50:00,31.9,11.9,30.03,SE,135,0.0,2.0,43,0.00,,,-99.99,WeatherLink 5.5,2013-11-14 10:50:00,
2013-11-14 05:55:00,31.9,11.9,30.03,North,-999,0.0,0.0,43,0.00,,,-99.99,WeatherLink 5.5,2013-11-14 10:55:00,
2013-11-14 06:00:00,31.9,11.9,30.03,North,-999,0.0,0.0,43,0.00,,,-99.99,WeatherLink 5.5,2013-11-14 11:00:00,
2013-11-14 06:05:00,32.1,12.6,30.04,SE,135,0.0,2.0,44,0.00,,,-99.99,WeatherLink 5.5,2013-11-14 11:05:00,
2013-11-14 06:10:00,32.2,12.7,30.04,SE,135,0.0,6.0,44,0.00,,,-99.99,WeatherLink 5.5,2013-11-14 11:10:00,
2013-11-14 06:15:00,32.2,12.7,30.04,SE,135,0.0,6.0,44,0.00,,,-99.99,WeatherLink 5.5,2013-11-14 11:15:00,
2013-11-14 06:20:00,32.2,12.7,30.04,North,-999,0.0,0.0,44,0.00,,,-99.99,WeatherLink 5.5,2013-11-14 11:20:00,
2013-11-14 06:25:00,32.2,12.7,30.04,SE,135,0.0,2.0,44,0.00,,,-99.99,WeatherLink 5.5,2013-11-14 11:25:00,
2013-11-14 06:30:00,32.2,12.7,30.04,SE,135,0.0,2.0,44,0.00,,,-99.99,WeatherLink 5.5,2013-11-14 11:30:00,
2013-11-14 06:35:00,32.5,13.0,30.04,SSE,157,0.0,1.0,44,0.00,,,-99.99,WeatherLink 5.5,2013-11-14 11:35:00,
2013-11-14 06:40:00,32.6,13.1,30.04,SSE,157,0.0,1.0,44,0.00,,,-99.99,WeatherLink 5.5,2013-11-14 11:40:00,
2013-11-14 06:45:00,32.6,13.1,30.04,SSE,157,0.0,1.0,44,0.00,,,-99.99,WeatherLink 5.5,2013-11-14 11:45:00,
2013-11-14 06:50:00,32.8,13.2,30.05,SSE,157,0.0,2.0,44,0.00,,,-99.99,WeatherLink 5.5,2013-11-14 11:50:00,
2013-11-14 06:55:00,32.6,12.0,30.05,SE,135,0.0,6.0,42,0.00,,,-99.99,WeatherLink 5.5,2013-11-14 11:55:00,
2013-11-14 07:00:00,32.6,12.0,30.05,SE,135,0.0,6.0,42,0.00,,,-99.99,WeatherLink 5.5,2013-11-14 12:00:00,
2013-11-14 07:05:00,32.5,11.9,30.05,SSE,157,0.0,1.0,42,0.00,,,-99.99,WeatherLink 5.5,2013-11-14 12:05:00,
2013-11-14 07:10:00,32.5,11.9,30.05,North,-999,0.0,0.0,42,0.00,,,-99.99,WeatherLink 5.5,2013-11-14 12:10:00,
2013-11-14 07:15:00,32.5,11.9,30.05,North,-999,0.0,0.0,42,0.00,,,-99.99,WeatherLink 5.5,2013-11-14 12:15:00,
2013-11-14 07:20:00,32.5,11.9,30.06,North,-999,0.0,0.0,42,0.00,,,-99.99,WeatherLink 5.5,2013-11-14 12:20:00,
2013-11-14 07:25:00,32.4,11.8,30.06,North,-999,0.0,0.0,42,0.00,,,-99.99,WeatherLink 5.5,2013-11-14 12:25:00,
2013-11-14 07:30:00,32.4,11.8,30.06,North,-999,0.0,0.0,42,0.00,,,-99.99,WeatherLink 5.5,2013-11-14 12:30:00,
2013-11-14 07:35:00,32.4,11.8,30.05,South,180,0.0,1.0,42,0.00,,,-99.99,WeatherLink 5.5,2013-11-14 12:35:00,
2013-11-14 07:40:00,32.4,11.8,30.05,South,180,0.0,1.0,42,0.00,,,-99.99,WeatherLink 5.5,2013-11-14 12:40:00,
2013-11-14 07:45:00,32.4,11.8,30.05,South,180,0.0,1.0,42,0.00,,,-99.99,WeatherLink 5.5,2013-11-14 12:45:00,
2013-11-14 07:50:00,33.2,11.5,30.05,SSW,202,0.0,7.0,40,0.00,,,-99.99,WeatherLink 5.5,2013-11-14 12:50:00,
2013-11-14 07:55:00,33.8,11.4,30.05,SSE,157,1.0,6.0,39,0.00,,,-99.99,WeatherLink 5.5,2013-11-14 12:55:00,
2013-11-14 08:00:00,33.8,11.4,30.05,SSE,157,1.0,6.0,39,0.00,,,-99.99,WeatherLink 5.5,2013-11-14 13:00:00,
2013-11-14 08:05:00,34.9,11.2,30.05,WSW,247,0.0,4.0,37,0.00,,,-99.99,WeatherLink 5.5,2013-11-14 13:05:00,
2013-11-14 08:10:00,35.3,11.0,30.05,SSE,157,1.0,7.0,36,0.00,,,-99.99,WeatherLink 5.5,2013-11-14 13:10:00,
2013-11-14 08:15:00,35.3,11.0,30.05,SSE,157,1.0,7.0,36,0.00,,,-99.99,WeatherLink 5.5,2013-11-14 13:15:00,
2013-11-14 08:20:00,35.7,11.3,30.05,SSE,157,1.0,7.0,36,0.00,,,-99.99,WeatherLink 5.5,2013-11-14 13:20:00,
2013-11-14 08:25:00,36.0,11.6,30.05,SE,135,1.0,6.0,36,0.00,,,-99.99,WeatherLink 5.5,2013-11-14 13:25:00,
2013-11-14 08:30:00,36.0,11.6,30.05,SE,135,1.0,6.0,36,0.00,,,-99.99,WeatherLink 5.5,2013-11-14 13:30:00,
2013-11-14 08:35:00,36.5,11.4,30.05,SSE,157,1.0,7.0,35,0.00,,,-99.99,WeatherLink 5.5,2013-11-14 13:35:00,
2013-11-14 08:40:00,36.7,11.6,30.05,SSE,157,1.0,7.0,35,0.00,,,-99.99,WeatherLink 5.5,2013-11-14 13:40:00,
2013-11-14 08:45:00,36.7,11.6,30.05,SSE,157,1.0,7.0,35,0.00,,,-99.99,WeatherLink 5.5,2013-11-14 13:45:00,
2013-11-14 08:50:00,37.2,11.4,30.05,South,180,2.0,9.0,34,0.00,,,-99.99,WeatherLink 5.5,2013-11-14 13:50:00,
2013-11-14 08:55:00,37.5,11.6,30.05,SW,225,2.0,8.0,34,0.00,,,-99.99,WeatherLink 5.5,2013-11-14 13:55:00,
2013-11-14 09:00:00,37.5,11.6,30.05,SW,225,2.0,8.0,34,0.00,,,-99.99,WeatherLink 5.5,2013-11-14 14:00:00,
2013-11-14 09:05:00,38.5,11.1,30.05,SSE,157,2.0,8.0,32,0.00,,,-99.99,WeatherLink 5.5,2013-11-14 14:05:00,
2013-11-14 09:10:00,38.9,10.8,30.05,SE,135,1.0,8.0,31,0.00,,,-99.99,WeatherLink 5.5,2013-11-14 14:10:00,
2013-11-14 09:15:00,38.9,10.8,30.05,SE,135,1.0,8.0,31,0.00,,,-99.99,WeatherLink 5.5,2013-11-14 14:15:00,
2013-11-14 09:20:00,40.2,11.9,30.05,SSE,157,1.0,8.0,31,0.00,,,-99.99,WeatherLink 5.5,2013-11-14 14:20:00,
2013-11-14 09:25:00,40.6,11.5,30.05,SSE,157,0.0,7.0,30,0.00,,,-99.99,WeatherLink 5.5,2013-11-14 14:25:00,
2013-11-14 09:30:00,40.6,11.5,30.05,SSE,157,0.0,7.0,30,0.00,,,-99.99,WeatherLink 5.5,2013-11-14 14:30:00,
2013-11-14 09:35:00,40.5,10.7,30.05,ESE,112,2.0,11.0,29,0.00,,,-99.99,WeatherLink 5.5,2013-11-14 14:35:00,
2013-11-14 09:40:00,40.9,11.8,30.05,SSE,157,0.0,4.0,30,0.00,,,-99.99,WeatherLink 5.5,2013-11-14 14:40:00,
2013-11-14 09:45:00,40.9,11.8,30.05,SSE,157,0.0,4.0,30,0.00,,,-99.99,WeatherLink 5.5,2013-11-14 14:45:00,
2013-11-14 09:50:00,42.0,10.4,30.04,SE,135,2.0,13.0,27,0.00,,,-99.99,WeatherLink 5.5,2013-11-14 14:50:00,
2013-11-14 09:55:00,42.8,10.2,30.04,NW,315,1.0,7.0,26,0.00,,,-99.99,WeatherLink 5.5,2013-11-14 14:55:00,
2013-11-14 10:00:00,42.8,10.2,30.04,NW,315,1.0,7.0,26,0.00,,,-99.99,WeatherLink 5.5,2013-11-14 15:00:00,
2013-11-14 10:05:00,43.3,8.9,30.04,WSW,247,3.0,11.0,24,0.00,,,-99.99,WeatherLink 5.5,2013-11-14 15:05:00,
2013-11-14 10:10:00,43.3,8.9,30.04,WSW,247,3.0,10.0,24,0.00,,,-99.99,WeatherLink 5.5,2013-11-14 15:10:00,
2013-11-14 10:15:00,43.3,8.9,30.04,WSW,247,3.0,10.0,24,0.00,,,-99.99,WeatherLink 5.5,2013-11-14 15:15:00,
2013-11-14 10:20:00,43.6,9.1,30.04,SW,225,1.0,10.0,24,0.00,,,-99.99,WeatherLink 5.5,2013-11-14 15:20:00,
2013-11-14 10:25:00,43.9,8.4,30.04,SE,135,2.0,7.0,23,0.00,,,-99.99,WeatherLink 5.5,2013-11-14 15:25:00,
2013-11-14 10:30:00,43.9,8.4,30.04,SE,135,2.0,7.0,23,0.00,,,-99.99,WeatherLink 5.5,2013-11-14 15:30:00,
2013-11-14 10:35:00,44.8,9.2,30.04,SSW,202,1.0,4.0,23,0.00,,,-99.99,WeatherLink 5.5,2013-11-14 15:35:00,
2013-11-14 10:40:00,45.2,7.5,30.04,SSW,202,1.0,7.0,21,0.00,,,-99.99,WeatherLink 5.5,2013-11-14 15:40:00,
2013-11-14 10:45:00,45.2,7.5,30.04,SSW,202,1.0,7.0,21,0.00,,,-99.99,WeatherLink 5.5,2013-11-14 15:45:00,
2013-11-14 10:50:00,45.8,8.0,30.03,South,180,1.0,7.0,21,0.00,,,-99.99,WeatherLink 5.5,2013-11-14 15:50:00,
2013-11-14 10:55:00,45.8,9.0,30.03,SE,135,1.0,7.0,22,0.00,,,-99.99,WeatherLink 5.5,2013-11-14 15:55:00,
2013-11-14 11:00:00,45.8,9.0,30.03,SE,135,1.0,7.0,22,0.00,,,-99.99,WeatherLink 5.5,2013-11-14 16:00:00,
2013-11-14 11:05:00,45.8,9.0,30.03,SSW,202,4.0,10.0,22,0.00,,,-99.99,WeatherLink 5.5,2013-11-14 16:05:00,
2013-11-14 11:10:00,45.5,9.8,30.03,SW,225,3.0,11.0,23,0.00,,,-99.99,WeatherLink 5.5,2013-11-14 16:10:00,
2013-11-14 11:15:00,45.5,9.8,30.03,SW,225,3.0,11.0,23,0.00,,,-99.99,WeatherLink 5.5,2013-11-14 16:15:00,
2013-11-14 11:20:00,45.7,9.0,30.02,WSW,247,5.0,16.0,22,0.00,,,-99.99,WeatherLink 5.5,2013-11-14 16:20:00,
2013-11-14 11:25:00,45.7,10.0,30.02,SSW,202,6.0,11.0,23,0.00,,,-99.99,WeatherLink 5.5,2013-11-14 16:25:00,
2013-11-14 11:30:00,45.7,10.0,30.02,SSW,202,6.0,11.0,23,0.00,,,-99.99,WeatherLink 5.5,2013-11-14 16:30:00,
2013-11-14 11:35:00,46.7,7.7,30.02,SE,135,3.0,10.0,20,0.00,,,-99.99,WeatherLink 5.5,2013-11-14 16:35:00,
2013-11-14 11:40:00,46.7,7.7,30.02,WSW,247,2.0,8.0,20,0.00,,,-99.99,WeatherLink 5.5,2013-11-14 16:40:00,
2013-11-14 11:45:00,46.7,7.7,30.02,WSW,247,2.0,8.0,20,0.00,,,-99.99,WeatherLink 5.5,2013-11-14 16:45:00,
2013-11-14 11:50:00,47.1,8.0,30.01,SSW,202,3.0,10.0,20,0.00,,,-99.99,WeatherLink 5.5,2013-11-14 16:50:00,
2013-11-14 11:55:00,47.3,9.3,30.01,SW,225,2.0,8.0,21,0.00,,,-99.99,WeatherLink 5.5,2013-11-14 16:55:00,
2013-11-14 12:00:00,47.3,9.3,30.01,SW,225,2.0,8.0,21,0.00,,,-99.99,WeatherLink 5.5,2013-11-14 17:00:00,
2013-11-14 12:05:00,47.4,9.4,30.01,WSW,247,6.0,15.0,21,0.00,,,-99.99,WeatherLink 5.5,2013-11-14 17:05:00,
2013-11-14 12:10:00,47.6,8.4,30.01,SW,225,3.0,10.0,20,0.00,,,-99.99,WeatherLink 5.5,2013-11-14 17:10:00,
2013-11-14 12:15:00,47.6,8.4,30.01,SW,225,3.0,10.0,20,0.00,,,-99.99,WeatherLink 5.5,2013-11-14 17:15:00,
2013-11-14 12:20:00,48.0,9.9,30.00,SSW,202,3.0,13.0,21,0.00,,,-99.99,WeatherLink 5.5,2013-11-14 17:20:00,
2013-11-14 12:25:00,48.3,10.1,30.00,WSW,247,3.0,10.0,21,0.00,,,-99.99,WeatherLink 5.5,2013-11-14 17:25:00,
2013-11-14 12:30:00,48.3,10.1,30.00,WSW,247,3.0,10.0,21,0.00,,,-99.99,WeatherLink 5.5,2013-11-14 17:30:00,
2013-11-14 12:35:00,48.6,10.4,30.00,SW,225,4.0,10.0,21,0.00,,,-99.99,WeatherLink 5.5,2013-11-14 17:35:00,
2013-11-14 12:40:00,48.8,10.5,30.00,WSW,247,5.0,13.0,21,0.00,,,-99.99,WeatherLink 5.5,2013-11-14 17:40:00,
2013-11-14 12:45:00,48.8,10.5,30.00,WSW,247,5.0,13.0,21,0.00,,,-99.99,WeatherLink 5.5,2013-11-14 17:45:00,
2013-11-14 12:50:00,49.6,11.2,29.99,SW,225,2.0,10.0,21,0.00,,,-99.99,WeatherLink 5.5,2013-11-14 17:50:00,
2013-11-14 12:55:00,49.9,11.4,29.99,SW,225,3.0,9.0,21,0.00,,,-99.99,WeatherLink 5.5,2013-11-14 17:55:00,
2013-11-14 13:00:00,49.9,11.4,29.99,SW,225,3.0,9.0,21,0.00,,,-99.99,WeatherLink 5.5,2013-11-14 18:00:00,
2013-11-14 13:05:00,50.2,11.7,29.99,SW,225,2.0,9.0,21,0.00,,,-99.99,WeatherLink 5.5,2013-11-14 18:05:00,
2013-11-14 13:10:00,50.8,12.2,29.99,ESE,112,0.0,6.0,21,0.00,,,-99.99,WeatherLink 5.5,2013-11-14 18:10:00,
2013-11-14 13:15:00,50.8,12.2,29.99,ESE,112,0.0,6.0,21,0.00,,,-99.99,WeatherLink 5.5,2013-11-14 18:15:00,
2013-11-14 13:20:00,51.1,12.5,29.99,SSW,202,3.0,9.0,21,0.00,,,-99.99,WeatherLink 5.5,2013-11-14 18:20:00,
2013-11-14 13:25:00,50.8,13.3,29.99,SW,225,4.0,11.0,22,0.00,,,-99.99,WeatherLink 5.5,2013-11-14 18:25:00,
2013-11-14 13:30:00,50.8,13.3,29.99,SW,225,4.0,11.0,22,0.00,,,-99.99,WeatherLink 5.5,2013-11-14 18:30:00,
2013-11-14 13:35:00,51.1,13.5,29.99,WSW,247,2.0,8.0,22,0.00,,,-99.99,WeatherLink 5.5,2013-11-14 18:35:00,
2013-11-14 13:40:00,51.1,14.5,29.99,SW,225,6.0,17.0,23,0.00,,,-99.99,WeatherLink 5.5,2013-11-14 18:40:00,
2013-11-14 13:45:00,51.1,14.5,29.99,SW,225,6.0,17.0,23,0.00,,,-99.99,WeatherLink 5.5,2013-11-14 18:45:00,
2013-11-14 13:50:00,50.7,15.2,29.99,WSW,247,5.0,11.0,24,0.00,,,-99.99,WeatherLink 5.5,2013-11-14 18:50:00,
2013-11-14 13:55:00,50.8,15.2,29.99,WSW,247,4.0,13.0,24,0.00,,,-99.99,WeatherLink 5.5,2013-11-14 18:55:00,
2013-11-14 14:00:00,50.8,15.2,29.99,WSW,247,4.0,13.0,24,0.00,,,-99.99,WeatherLink 5.5,2013-11-14 19:00:00,
2013-11-14 14:05:00,51.1,15.5,29.99,WSW,247,3.0,8.0,24,0.00,,,-99.99,WeatherLink 5.5,2013-11-14 19:05:00,
2013-11-14 14:10:00,51.4,15.8,29.99,SW,225,1.0,8.0,24,0.00,,,-99.99,WeatherLink 5.5,2013-11-14 19:10:00,
2013-11-14 14:15:00,51.4,15.8,29.99,SW,225,1.0,8.0,24,0.00,,,-99.99,WeatherLink 5.5,2013-11-14 19:15:00,
2013-11-14 14:20:00,51.1,15.5,29.99,WSW,247,4.0,14.0,24,0.00,,,-99.99,WeatherLink 5.5,2013-11-14 19:20:00,
2013-11-14 14:25:00,51.0,15.4,29.99,SW,225,2.0,9.0,24,0.00,,,-99.99,WeatherLink 5.5,2013-11-14 19:25:00,
2013-11-14 14:30:00,51.0,15.4,29.99,SW,225,2.0,9.0,24,0.00,,,-99.99,WeatherLink 5.5,2013-11-14 19:30:00,
2013-11-14 14:35:00,50.5,15.9,29.99,WSW,247,2.0,8.0,25,0.00,,,-99.99,WeatherLink 5.5,2013-11-14 19:35:00,
2013-11-14 14:40:00,50.5,15.0,29.99,WSW,247,1.0,7.0,24,0.00,,,-99.99,WeatherLink 5.5,2013-11-14 19:40:00,
2013-11-14 14:45:00,50.5,15.0,29.99,WSW,247,1.0,7.0,24,0.00,,,-99.99,WeatherLink 5.5,2013-11-14 19:45:00,
2013-11-14 14:50:00,50.5,15.0,30.00,SW,225,3.0,9.0,24,0.00,,,-99.99,WeatherLink 5.5,2013-11-14 19:50:00,
2013-11-14 14:55:00,50.4,14.9,30.00,West,270,1.0,6.0,24,0.00,,,-99.99,WeatherLink 5.5,2013-11-14 19:55:00,
2013-11-14 15:00:00,50.4,14.9,30.00,West,270,1.0,6.0,24,0.00,,,-99.99,WeatherLink 5.5,2013-11-14 20:00:00,
2013-11-14 15:05:00,50.2,15.7,30.00,SW,225,1.0,9.0,25,0.00,,,-99.99,WeatherLink 5.5,2013-11-14 20:05:00,
2013-11-14 15:10:00,50.2,14.7,30.00,SW,225,1.0,7.0,24,0.00,,,-99.99,WeatherLink 5.5,2013-11-14 20:10:00,
2013-11-14 15:15:00,50.2,14.7,30.00,SW,225,1.0,7.0,24,0.00,,,-99.99,WeatherLink 5.5,2013-11-14 20:15:00,
2013-11-14 15:20:00,50.1,15.6,30.00,WSW,247,0.0,2.0,25,0.00,,,-99.99,WeatherLink 5.5,2013-11-14 20:20:00,
2013-11-14 15:25:00,49.9,15.4,30.00,WSW,247,0.0,7.0,25,0.00,,,-99.99,WeatherLink 5.5,2013-11-14 20:25:00,
2013-11-14 15:30:00,49.9,15.4,30.00,WSW,247,0.0,7.0,25,0.00,,,-99.99,WeatherLink 5.5,2013-11-14 20:30:00,
2013-11-14 15:35:00,49.6,16.9,30.00,WSW,247,0.0,1.0,27,0.00,,,-99.99,WeatherLink 5.5,2013-11-14 20:35:00,
2013-11-14 15:40:00,49.3,17.5,30.00,North,-999,0.0,0.0,28,0.00,,,-99.99,WeatherLink 5.5,2013-11-14 20:40:00,
2013-11-14 15:45:00,49.3,17.5,30.00,North,-999,0.0,0.0,28,0.00,,,-99.99,WeatherLink 5.5,2013-11-14 20:45:00,
2013-11-14 15:50:00,48.6,16.9,30.01,North,-999,0.0,0.0,28,0.00,,,-99.99,WeatherLink 5.5,2013-11-14 20:50:00,
2013-11-14 15:55:00,48.3,18.3,30.01,North,-999,0.0,0.0,30,0.00,,,-99.99,WeatherLink 5.5,2013-11-14 20:55:00,
2013-11-14 16:00:00,48.3,18.3,30.01,North,-999,0.0,0.0,30,0.00,,,-99.99,WeatherLink 5.5,2013-11-14 21:00:00,
2013-11-14 16:05:00,47.7,16.9,30.01,North,-999,0.0,0.0,29,0.00,,,-99.99,WeatherLink 5.5,2013-11-14 21:05:00,
2013-11-14 16:10:00,47.6,16.9,30.01,ESE,112,0.0,1.0,29,0.00,,,-99.99,WeatherLink 5.5,2013-11-14 21:10:00,
2013-11-14 16:15:00,47.6,16.9,30.01,ESE,112,0.0,1.0,29,0.00,,,-99.99,WeatherLink 5.5,2013-11-14 21:15:00,
2013-11-14 16:20:00,47.1,17.2,30.02,SE,135,0.0,1.0,30,0.00,,,-99.99,WeatherLink 5.5,2013-11-14 21:20:00,
2013-11-14 16:25:00,47.0,17.9,30.02,North,-999,0.0,0.0,31,0.00,,,-99.99,WeatherLink 5.5,2013-11-14 21:25:00,
2013-11-14 16:30:00,47.0,17.9,30.02,North,-999,0.0,0.0,31,0.00,,,-99.99,WeatherLink 5.5,2013-11-14 21:30:00,
2013-11-14 16:35:00,46.2,17.2,30.02,North,-999,0.0,0.0,31,0.00,,,-99.99,WeatherLink 5.5,2013-11-14 21:35:00,
2013-11-14 16:40:00,45.9,17.7,30.02,North,-999,0.0,0.0,32,0.00,,,-99.99,WeatherLink 5.5,2013-11-14 21:40:00,
2013-11-14 16:45:00,45.9,17.7,30.02,North,-999,0.0,0.0,32,0.00,,,-99.99,WeatherLink 5.5,2013-11-14 21:45:00,
2013-11-14 16:50:00,45.2,18.5,30.02,North,-999,0.0,0.0,34,0.00,,,-99.99,WeatherLink 5.5,2013-11-14 21:50:00,
2013-11-14 16:55:00,44.9,18.2,30.02,North,-999,0.0,0.0,34,0.00,,,-99.99,WeatherLink 5.5,2013-11-14 21:55:00,
2013-11-14 17:00:00,44.9,18.2,30.02,North,-999,0.0,0.0,34,0.00,,,-99.99,WeatherLink 5.5,2013-11-14 22:00:00,
2013-11-14 17:05:00,44.0,18.1,30.02,North,-999,0.0,0.0,35,0.00,,,-99.99,WeatherLink 5.5,2013-11-14 22:05:00,
2013-11-14 17:10:00,43.8,18.5,30.02,North,-999,0.0,0.0,36,0.00,,,-99.99,WeatherLink 5.5,2013-11-14 22:10:00,
2013-11-14 17:15:00,43.8,18.5,30.02,North,-999,0.0,0.0,36,0.00,,,-99.99,WeatherLink 5.5,2013-11-14 22:15:00,
2013-11-14 17:20:00,43.2,18.6,30.03,North,-999,0.0,0.0,37,0.00,,,-99.99,WeatherLink 5.5,2013-11-14 22:20:00,
2013-11-14 17:25:00,42.8,19.5,30.03,North,-999,0.0,0.0,39,0.00,,,-99.99,WeatherLink 5.5,2013-11-14 22:25:00,
2013-11-14 17:30:00,42.8,19.5,30.03,North,-999,0.0,0.0,39,0.00,,,-99.99,WeatherLink 5.5,2013-11-14 22:30:00,
2013-11-14 17:35:00,41.9,19.3,30.03,North,-999,0.0,0.0,40,0.00,,,-99.99,WeatherLink 5.5,2013-11-14 22:35:00,
2013-11-14 17:40:00,41.6,19.6,30.03,North,-999,0.0,0.0,41,0.00,,,-99.99,WeatherLink 5.5,2013-11-14 22:40:00,
2013-11-14 17:45:00,41.6,19.6,30.03,North,-999,0.0,0.0,41,0.00,,,-99.99,WeatherLink 5.5,2013-11-14 22:45:00,
2013-11-14 17:50:00,40.9,20.1,30.04,North,-999,0.0,0.0,43,0.00,,,-99.99,WeatherLink 5.5,2013-11-14 22:50:00,
2013-11-14 17:55:00,40.6,19.8,30.04,North,-999,0.0,0.0,43,0.00,,,-99.99,WeatherLink 5.5,2013-11-14 22:55:00,
2013-11-14 18:00:00,40.6,19.8,30.04,North,-999,0.0,0.0,43,0.00,,,-99.99,WeatherLink 5.5,2013-11-14 23:00:00,
2013-11-14 18:05:00,39.8,20.2,30.04,North,-999,0.0,0.0,45,0.00,,,-99.99,WeatherLink 5.5,2013-11-14 23:05:00,
2013-11-14 18:10:00,39.3,19.7,30.04,North,-999,0.0,0.0,45,0.00,,,-99.99,WeatherLink 5.5,2013-11-14 23:10:00,
2013-11-14 18:15:00,39.3,19.7,30.04,North,-999,0.0,0.0,45,0.00,,,-99.99,WeatherLink 5.5,2013-11-14 23:15:00,
2013-11-14 18:20:00,38.8,19.8,30.05,North,-999,0.0,0.0,46,0.00,,,-99.99,WeatherLink 5.5,2013-11-14 23:20:00,
2013-11-14 18:25:00,38.6,19.6,30.05,North,-999,0.0,0.0,46,0.00,,,-99.99,WeatherLink 5.5,2013-11-14 23:25:00,
2013-11-14 18:30:00,38.6,19.6,30.05,North,-999,0.0,0.0,46,0.00,,,-99.99,WeatherLink 5.5,2013-11-14 23:30:00,
2013-11-14 18:35:00,38.3,20.3,30.05,North,-999,0.0,0.0,48,0.00,,,-99.99,WeatherLink 5.5,2013-11-14 23:35:00,
2013-11-14 18:40:00,37.9,19.9,30.05,North,-999,0.0,0.0,48,0.00,,,-99.99,WeatherLink 5.5,2013-11-14 23:40:00,
2013-11-14 18:45:00,37.9,19.9,30.05,North,-999,0.0,0.0,48,0.00,,,-99.99,WeatherLink 5.5,2013-11-14 23:45:00,
2013-11-14 18:50:00,37.0,19.6,30.05,North,-999,0.0,0.0,49,0.00,,,-99.99,WeatherLink 5.5,2013-11-14 23:50:00,
2013-11-14 18:55:00,36.9,19.5,30.05,North,-999,0.0,0.0,49,0.00,,,-99.99,WeatherLink 5.5,2013-11-14 23:55:00,
2013-11-14 19:00:00,36.9,19.5,30.05,North,-999,0.0,0.0,49,0.00,,,-99.99,WeatherLink 5.5,2013-11-15 00:00:00,
2013-11-14 19:05:00,36.7,19.3,30.05,North,-999,0.0,0.0,49,0.00,,,-99.99,WeatherLink 5.5,2013-11-15 00:05:00,
2013-11-14 19:10:00,36.9,19.0,30.05,North,-999,0.0,0.0,48,0.00,,,-99.99,WeatherLink 5.5,2013-11-15 00:10:00,
2013-11-14 19:15:00,36.9,19.0,30.05,North,-999,0.0,0.0,48,0.00,,,-99.99,WeatherLink 5.5,2013-11-15 00:15:00,
2013-11-14 19:20:00,37.2,18.3,30.05,North,-999,0.0,0.0,46,0.00,,,-99.99,WeatherLink 5.5,2013-11-15 00:20:00,
2013-11-14 19:25:00,37.6,18.7,30.05,North,-999,0.0,0.0,46,0.00,,,-99.99,WeatherLink 5.5,2013-11-15 00:25:00,
2013-11-14 19:30:00,37.6,18.7,30.05,North,-999,0.0,0.0,46,0.00,,,-99.99,WeatherLink 5.5,2013-11-15 00:30:00,
2013-11-14 19:35:00,37.7,18.8,30.05,North,-999,0.0,0.0,46,0.00,,,-99.99,WeatherLink 5.5,2013-11-15 00:35:00,
2013-11-14 19:40:00,37.6,18.7,30.05,North,-999,0.0,0.0,46,0.00,,,-99.99,WeatherLink 5.5,2013-11-15 00:40:00,
2013-11-14 19:45:00,37.6,18.7,30.05,North,-999,0.0,0.0,46,0.00,,,-99.99,WeatherLink 5.5,2013-11-15 00:45:00,
2013-11-14 19:50:00,37.5,18.6,30.05,North,-999,0.0,0.0,46,0.00,,,-99.99,WeatherLink 5.5,2013-11-15 00:50:00,
2013-11-14 19:55:00,37.3,18.4,30.05,North,-999,0.0,0.0,46,0.00,,,-99.99,WeatherLink 5.5,2013-11-15 00:55:00,
2013-11-14 20:00:00,37.3,18.4,30.05,North,-999,0.0,0.0,46,0.00,,,-99.99,WeatherLink 5.5,2013-11-15 01:00:00,
2013-11-14 20:05:00,36.9,18.5,30.05,North,-999,0.0,0.0,47,0.00,,,-99.99,WeatherLink 5.5,2013-11-15 01:05:00,
2013-11-14 20:10:00,36.7,18.3,30.05,North,-999,0.0,0.0,47,0.00,,,-99.99,WeatherLink 5.5,2013-11-15 01:10:00,
2013-11-14 20:15:00,36.7,18.3,30.05,North,-999,0.0,0.0,47,0.00,,,-99.99,WeatherLink 5.5,2013-11-15 01:15:00,
2013-11-14 20:20:00,36.5,18.6,30.05,North,-999,0.0,0.0,48,0.00,,,-99.99,WeatherLink 5.5,2013-11-15 01:20:00,
2013-11-14 20:25:00,36.3,18.5,30.05,North,-999,0.0,0.0,48,0.00,,,-99.99,WeatherLink 5.5,2013-11-15 01:25:00,
2013-11-14 20:30:00,36.3,18.5,30.05,North,-999,0.0,0.0,48,0.00,,,-99.99,WeatherLink 5.5,2013-11-15 01:30:00,
2013-11-14 20:35:00,35.9,18.6,30.05,North,-999,0.0,0.0,49,0.00,,,-99.99,WeatherLink 5.5,2013-11-15 01:35:00,
2013-11-14 20:40:00,35.6,18.8,30.05,North,-999,0.0,0.0,50,0.00,,,-99.99,WeatherLink 5.5,2013-11-15 01:40:00,
2013-11-14 20:45:00,35.6,18.8,30.05,North,-999,0.0,0.0,50,0.00,,,-99.99,WeatherLink 5.5,2013-11-15 01:45:00,
2013-11-14 20:50:00,35.0,18.2,30.06,North,-999,0.0,0.0,50,0.00,,,-99.99,WeatherLink 5.5,2013-11-15 01:50:00,
2013-11-14 20:55:00,34.9,18.6,30.06,North,-999,0.0,0.0,51,0.00,,,-99.99,WeatherLink 5.5,2013-11-15 01:55:00,
2013-11-14 21:00:00,34.9,18.6,30.06,North,-999,0.0,0.0,51,0.00,,,-99.99,WeatherLink 5.5,2013-11-15 02:00:00,
2013-11-14 21:05:00,34.4,18.6,30.06,North,-999,0.0,0.0,52,0.00,,,-99.99,WeatherLink 5.5,2013-11-15 02:05:00,
2013-11-14 21:10:00,34.3,18.5,30.06,North,-999,0.0,0.0,52,0.00,,,-99.99,WeatherLink 5.5,2013-11-15 02:10:00,
2013-11-14 21:15:00,34.3,18.5,30.06,North,-999,0.0,0.0,52,0.00,,,-99.99,WeatherLink 5.5,2013-11-15 02:15:00,
2013-11-14 21:20:00,34.1,18.3,30.06,North,-999,0.0,0.0,52,0.00,,,-99.99,WeatherLink 5.5,2013-11-15 02:20:00,
2013-11-14 21:25:00,34.0,18.2,30.06,North,-999,0.0,0.0,52,0.00,,,-99.99,WeatherLink 5.5,2013-11-15 02:25:00,
2013-11-14 21:30:00,34.0,18.2,30.06,North,-999,0.0,0.0,52,0.00,,,-99.99,WeatherLink 5.5,2013-11-15 02:30:00,
2013-11-14 21:35:00,33.5,17.7,30.06,North,-999,0.0,0.0,52,0.00,,,-99.99,WeatherLink 5.5,2013-11-15 02:35:00,
2013-11-14 21:40:00,33.4,18.1,30.06,North,-999,0.0,0.0,53,0.00,,,-99.99,WeatherLink 5.5,2013-11-15 02:40:00,
2013-11-14 21:45:00,33.4,18.1,30.06,North,-999,0.0,0.0,53,0.00,,,-99.99,WeatherLink 5.5,2013-11-15 02:45:00,
2013-11-14 21:50:00,33.1,17.8,30.06,North,-999,0.0,0.0,53,0.00,,,-99.99,WeatherLink 5.5,2013-11-15 02:50:00,
2013-11-14 21:55:00,32.8,17.5,30.06,North,-999,0.0,0.0,53,0.00,,,-99.99,WeatherLink 5.5,2013-11-15 02:55:00,
2013-11-14 22:00:00,32.8,17.5,30.06,North,-999,0.0,0.0,53,0.00,,,-99.99,WeatherLink 5.5,2013-11-15 03:00:00,
2013-11-14 22:05:00,32.4,18.4,30.06,North,-999,0.0,0.0,56,0.00,,,-99.99,WeatherLink 5.5,2013-11-15 03:05:00,
2013-11-14 22:10:00,32.2,17.8,30.06,North,-999,0.0,0.0,55,0.00,,,-99.99,WeatherLink 5.5,2013-11-15 03:10:00,
2013-11-14 22:15:00,32.2,17.8,30.06,North,-999,0.0,0.0,55,0.00,,,-99.99,WeatherLink 5.5,2013-11-15 03:15:00,
2013-11-14 22:20:00,31.8,17.9,30.06,North,-999,0.0,0.0,56,0.00,,,-99.99,WeatherLink 5.5,2013-11-15 03:20:00,
2013-11-14 22:25:00,31.5,18.0,30.06,North,-999,0.0,0.0,57,0.00,,,-99.99,WeatherLink 5.5,2013-11-15 03:25:00,
2013-11-14 22:30:00,31.5,18.0,30.06,North,-999,0.0,0.0,57,0.00,,,-99.99,WeatherLink 5.5,2013-11-15 03:30:00,
2013-11-14 22:35:00,31.0,17.5,30.06,North,-999,0.0,0.0,57,0.00,,,-99.99,WeatherLink 5.5,2013-11-15 03:35:00,
2013-11-14 22:40:00,30.9,17.4,30.06,North,-999,0.0,0.0,57,0.00,,,-99.99,WeatherLink 5.5,2013-11-15 03:40:00,
2013-11-14 22:45:00,30.9,17.4,30.06,North,-999,0.0,0.0,57,0.00,,,-99.99,WeatherLink 5.5,2013-11-15 03:45:00,
2013-11-14 22:50:00,30.7,18.1,30.06,North,-999,0.0,0.0,59,0.00,,,-99.99,WeatherLink 5.5,2013-11-15 03:50:00,
2013-11-14 22:55:00,30.7,18.1,30.06,North,-999,0.0,0.0,59,0.00,,,-99.99,WeatherLink 5.5,2013-11-15 03:55:00,
2013-11-14 23:00:00,30.7,18.1,30.06,North,-999,0.0,0.0,59,0.00,,,-99.99,WeatherLink 5.5,2013-11-15 04:00:00,
2013-11-14 23:05:00,30.6,18.0,30.06,North,-999,0.0,0.0,59,0.00,,,-99.99,WeatherLink 5.5,2013-11-15 04:05:00,
2013-11-14 23:10:00,30.6,18.0,30.06,North,-999,0.0,0.0,59,0.00,,,-99.99,WeatherLink 5.5,2013-11-15 04:10:00,
2013-11-14 23:15:00,30.6,18.0,30.06,North,-999,0.0,0.0,59,0.00,,,-99.99,WeatherLink 5.5,2013-11-15 04:15:00,
2013-11-14 23:20:00,30.1,17.9,30.07,North,-999,0.0,0.0,60,0.00,,,-99.99,WeatherLink 5.5,2013-11-15 04:20:00,
2013-11-14 23:25:00,30.0,17.8,30.07,North,-999,0.0,0.0,60,0.00,,,-99.99,WeatherLink 5.5,2013-11-15 04:25:00,
2013-11-14 23:30:00,30.0,17.8,30.07,North,-999,0.0,0.0,60,0.00,,,-99.99,WeatherLink 5.5,2013-11-15 04:30:00,
2013-11-14 23:35:00,29.7,17.9,30.07,North,-999,0.0,0.0,61,0.00,,,-99.99,WeatherLink 5.5,2013-11-15 04:35:00,
2013-11-14 23:40:00,29.7,17.9,30.07,North,-999,0.0,0.0,61,0.00,,,-99.99,WeatherLink 5.5,2013-11-15 04:40:00,
2013-11-14 23:45:00,29.7,17.9,30.07,North,-999,0.0,0.0,61,0.00,,,-99.99,WeatherLink 5.5,2013-11-15 04:45:00,
2013-11-14 23:50:00,29.7,18.3,30.07,North,-999,0.0,0.0,62,0.00,,,-99.99,WeatherLink 5.5,2013-11-15 04:50:00,
2013-11-14 23:55:00,29.7,18.3,30.07,North,-999,0.0,0.0,62,0.00,,,-99.99,WeatherLink 5.5,2013-11-15 04:55:00,